Wind_Speed
26 25 23 23 21 20 20 23 20 18 17 17 15 14 19 22 25 10 25 16 20 10 5 23 21 16 17 13 9 8 10 17 22 19 14 9 11 7 4 8 7 5 3 3 4
28 25 24 22 20 20 19 18 17 16 15 13 14 13 11 16 27 18 21 23 17 14 8 18 23 18 12 12 11 14 15 22 13 12 12 12 12 10 8 9 9 6 3 7 6
26 24 21 22 18 17 18 15 14 13 14 14 13 15 12 11 12 15 16 24 18 21 14 15 20 18 12 12 15 17 17 12 8 11 8 13 12 7 8 8 9 8 1 2 6
24 22 20 18 16 15 14 13 13 12 12 13 14 12 11 2 9 12 11 18 22 21 18 18 24 19 13 13 18 9 17 10 8 7 8 13 10 8 11 5 8 7 1 1 2
25 22 20 17 14 13 12 11 10 10 10 10 11 10 7 7 16 12 12 18 26 24 25 24 30 23 17 15 13 14 7 9 8 10 8 8 10 9 11 9 7 9 10 6 4
26 20 18 17 14 12 12 12 9 9 8 9 7 7 7 11 11 18 7 7 26 28 27 24 25 19 18 13 15 15 5 15 11 8 6 8 9 6 9 10 9 13 15 14 12
24 24 20 17 11 12 11 6 6 7 8 6 6 7 11 16 13 20 25 11 17 28 29 23 18 19 12 8 10 8 15 7 11 12 9 7 13 13 18 19 18 18 16 13 13
28 23 21 14 13 12 7 7 10 7 8 6 9 8 9 11 14 7 17 18 14 27 27 19 19 18 11 7 11 11 7 11 12 16 6 8 15 3 8 10 14 15 16 17 20
28 23 21 13 16 7 5 8 10 14 8 6 6 7 5 13 16 12 17 14 18 28 25 20 24 21 7 13 8 14 11 17 5 10 11 17 10 8 11 6 9 11 12 12 15
30 24 12 9 7 5 4 8 5 4 7 5 5 5 9 15 14 13 11 12 25 27 22 20 15 13 13 14 15 17 17 13 14 5 9 8 14 6 9 8 13 15 16 15 15
33 26 15 10 4 5 2 2 2 3 6 4 5 4 9 11 15 14 6 13 23 24 10 23 7 16 21 18 3 10 16 10 9 4 5 11 12 12 15 16 18 19 19 19 17
29 28 17 5 2 6 1 2 1 2 3 5 5 11 11 8 6 11 12 12 14 19 14 9 15 14 13 12 9 14 14 10 5 4 4 4 9 13 14 16 13 12 13 12 10
31 26 20 13 6 4 7 2 3 1 3 4 3 5 2 10 9 8 3 5 18 18 19 15 12 14 14 12 11 9 12 9 3 5 1 6 8 6 3 6 4 6 7 7 7
28 27 21 10 15 13 8 4 2 1 2 4 1 0 6 8 6 4 6 6 5 6 10 8 2 17 18 15 13 9 4 7 5 4 4 4 1 4 6 8 11 12 11 9 8
22 24 22 18 10 13 8 4 1 4 3 8 4 3 8 5 12 6 9 5 9 6 4 3 7 18 18 19 13 4 7 8 3 2 2 3 4 6 11 11 10 10 9 7 6
17 17 15 13 12 10 8 4 0 3 8 4 6 6 5 4 3 7 5 13 9 8 11 4 6 3 3 9 7 15 10 7 3 1 3 3 3 8 8 10 11 6 6 7 6
13 13 14 13 6 4 4 2 2 6 3 6 4 5 6 4 6 5 4 5 3 4 3 3 3 3 3 10 6 6 10 3 3 3 2 2 4 2 9 5 10 7 7 6 6
12 8 12 13 9 6 3 3 9 6 5 2 4 12 5 4 5 3 7 3 4 3 3 3 4 4 2 2 5 5 4 2 4 5 3 2 5 2 7 4 10 5 7 6 6
9 6 13 14 9 4 1 7 3 2 2 6 8 7 3 6 5 4 3 2 2 2 2 4 4 3 6 6 4 5 4 1 4 1 2 4 4 4 2 6 12 6 8 6 6
7 2 16 14 10 6 2 5 1 1 2 2 2 1 4 3 3 4 3 1 3 1 2 3 5 2 4 1 8 1 7 2 0 4 4 4 4 4 9 10 9 4 6 8 7
6 2 12 10 10 8 4 3 3 3 2 3 2 2 4 3 2 2 2 2 1 2 3 5 2 2 3 3 6 4 3 2 2 1 2 2 3 2 11 9 5 9 9 9 7
3 1 9 5 3 3 2 2 4 3 2 2 3 3 3 2 3 2 3 1 2 3 3 2 4 4 2 2 3 2 3 5 3 5 0 2 1 3 5 3 4 11 10 10 7
5 2 8 2 3 2 1 1 2 2 3 1 2 0 1 3 2 2 2 2 3 1 5 5 3 4 2 1 1 5 6 4 4 2 5 3 3 2 3 4 8 9 9 8 8
4 1 4 7 5 2 2 1 1 1 1 2 3 2 4 2 3 4 4 2 0 2 4 3 3 1 3 3 4 4 9 10 5 4 5 7 1 5 6 7 8 8 8 6 6
5 2 2 1 3 3 0 0 1 1 0 1 2 2 3 3 3 4 3 3 2 3 2 1 2 1 1 1 3 3 6 13 10 9 6 1 7 8 9 8 9 10 6 5 5
4 3 3 1 1 1 1 1 0 0 1 1 2 5 3 2 2 6 6 4 3 4 3 1 3 1 2 1 6 8 11 12 15 15 14 14 17 16 11 5 7 9 6 6 6
4 3 2 0 2 3 3 2 1 1 1 2 3 3 3 1 1 1 5 6 5 7 6 4 5 2 1 0 4 8 17 19 11 10 15 12 13 7 8 7 10 7 4 5 6
Wind_Direction
320 320 311 311 307 295 295 286 279 276 265 260 273 271 268 254 248 241 220 221 211 168 189 192 187 185 181 189 193 184 222 223 214 222 218 190 207 201 192 213 196 206 274 267 280
320 315 311 312 313 313 300 290 287 275 270 245 257 276 306 263 246 252 232 221 225 177 186 181 182 173 179 191 193 201 220 224 227 216 215 182 202 189 184 189 205 196 255 287 261
316 317 313 312 313 310 310 301 292 279 268 256 246 272 280 308 263 255 253 225 221 190 196 183 183 174 179 183 190 207 228 215 218 211 185 187 195 189 204 200 207 198 135 334 272
321 318 316 316 309 315 315 307 294 290 278 256 245 251 278 299 210 220 227 210 218 199 195 182 187 182 187 189 192 204 225 229 197 189 167 180 185 201 222 239 159 154 287 327 230
324 320 314 313 312 307 311 311 304 295 279 258 242 237 249 218 219 188 166 207 205 194 192 186 190 191 194 193 190 217 197 204 199 179 165 161 188 217 232 224 229 251 260 241 240
330 324 317 309 301 311 304 305 300 295 277 259 232 214 221 236 215 215 177 127 193 187 192 190 196 185 201 194 193 199 192 204 201 198 179 195 218 219 232 240 248 247 253 251 250
323 317 311 313 299 305 292 304 304 295 292 249 248 214 235 228 196 215 225 233 191 185 193 191 189 183 173 169 177 176 206 201 211 222 228 202 234 235 247 254 257 252 254 252 249
324 319 308 306 293 300 284 297 293 304 295 236 211 213 250 234 183 200 204 225 202 190 193 184 184 181 169 162 166 181 189 200 221 211 205 200 252 149 200 228 249 255 254 253 251
340 326 302 299 298 273 283 306 303 280 251 201 209 207 246 189 205 192 186 199 191 187 190 181 178 191 152 163 157 191 203 211 194 204 213 213 256 257 234 230 258 263 261 257 259
345 344 320 288 300 240 286 329 3 102 149 165 179 210 242 185 188 180 177 184 165 175 180 192 178 176 181 185 198 189 204 209 215 170 217 215 235 225 219 256 268 271 271 268 263
358 358 347 292 259 239 301 32 63 91 164 216 198 254 125 161 175 192 173 200 170 166 171 194 182 187 186 198 244 171 194 197 217 138 222 237 248 252 254 258 257 262 269 274 273
5 7 9 22 193 238 290 36 122 126 214 263 297 250 280 178 133 173 203 163 162 170 167 172 210 192 172 177 179 178 180 191 129 161 234 228 259 253 252 258 271 274 271 276 288
13 16 29 37 39 175 159 108 153 132 229 63 163 256 249 157 141 151 154 112 173 173 177 177 183 164 175 174 160 179 183 165 151 161 170 289 247 193 120 109 101 87 90 90 77
19 22 40 54 62 93 97 127 149 305 222 94 279 71 132 131 71 81 68 106 43 137 169 157 157 175 181 187 179 166 124 131 134 209 232 325 202 132 134 110 103 100 89 81 65
25 27 39 53 84 76 92 114 107 323 79 0 346 79 98 67 124 42 167 163 125 135 170 92 182 178 184 188 197 124 145 113 99 130 290 173 239 122 154 131 132 106 75 60 42
23 23 21 43 60 82 92 111 242 253 37 36 341 113 78 32 73 121 129 88 90 86 69 57 49 34 75 73 179 138 110 80 92 214 231 167 256 167 182 158 154 133 47 32 26
353 0 7 20 9 333 325 314 249 40 304 14 60 113 94 81 60 48 117 81 120 125 106 57 35 90 85 77 22 190 156 141 187 202 252 125 216 343 154 151 170 136 23 8 8
347 4 13 11 7 9 344 229 55 30 71 169 97 92 56 48 46 14 120 72 59 97 115 86 93 12 33 127 156 143 190 228 188 187 150 153 232 119 144 162 167 178 347 353 0
358 44 17 11 20 36 62 50 44 4 74 137 123 86 90 77 111 96 51 95 77 349 82 123 88 121 202 154 173 155 200 49 101 93 246 173 226 251 158 167 180 219 333 351 351
14 73 12 16 36 45 42 90 67 327 18 347 67 16 148 114 146 138 167 119 117 2 292 131 114 102 156 135 52 274 133 143 249 178 223 188 239 149 163 153 168 294 343 347 346
24 90 4 11 46 62 60 41 28 9 3 6 90 106 103 121 96 100 95 122 182 91 96 127 94 131 185 205 169 141 179 76 112 296 268 246 126 108 159 161 184 344 346 341 342
17 58 359 34 53 49 47 323 338 344 358 93 102 97 134 131 123 117 123 91 142 154 106 66 109 140 126 35 322 286 227 210 230 181 145 325 124 147 155 195 269 323 330 333 338
354 339 24 135 101 95 129 187 240 343 15 49 105 23 150 135 130 81 102 26 157 138 156 170 119 117 132 228 179 223 198 214 106 63 197 216 126 130 184 229 302 298 322 328 328
341 294 25 62 80 84 132 58 170 181 20 53 111 139 141 118 37 140 138 51 215 50 99 113 127 247 189 93 125 197 200 199 184 188 181 228 300 175 251 305 315 322 324 328 331
9 48 345 82 82 101 185 155 294 187 54 99 129 185 150 136 134 146 145 126 98 145 72 36 112 121 219 149 187 213 200 198 208 208 211 179 228 267 297 299 303 312 320 319 324
26 11 338 119 119 172 177 157 276 148 279 141 174 161 189 171 209 180 167 191 175 162 169 139 134 145 210 165 230 247 234 220 222 229 246 257 276 276 284 275 313 319 318 326 345
47 20 344 277 187 200 162 157 166 235 190 246 170 207 168 113 203 267 177 172 167 171 170 160 145 169 224 304 280 256 229 212 208 209 219 228 238 253 288 313 319 319 327 328 343
Height
1497 1494 1490 1487 1483 1482 1480 1478 1477 1477 1477 1478 1478 1478 1477 1478 1479 1482 1482 1487 1491 1493 1495 1498 1503 1507 1510 1512 1513 1514 1510 1505 1508 1513 1513 1518 1518 1521 1522 1523 1524 1525 1524 1524 1524
1492 1488 1485 1482 1480 1478 1475 1473 1472 1472 1473 1474 1475 1475 1474 1473 1475 1475 1480 1484 1488 1492 1495 1496 1501 1506 1509 1510 1512 1510 1505 1499 1503 1509 1512 1515 1516 1518 1521 1522 1522 1523 1524 1523 1523
1487 1484 1481 1478 1476 1474 1471 1470 1468 1468 1468 1470 1471 1471 1471 1470 1474 1472 1475 1481 1484 1489 1493 1497 1502 1505 1507 1509 1508 1506 1500 1503 1510 1511 1512 1513 1516 1517 1517 1519 1519 1521 1523 1523 1522
1483 1480 1477 1474 1471 1469 1468 1467 1465 1465 1465 1466 1467 1468 1469 1471 1473 1469 1471 1474 1481 1486 1491 1494 1499 1501 1502 1503 1505 1505 1505 1506 1510 1511 1512 1512 1514 1515 1516 1517 1520 1521 1522 1523 1523
1479 1476 1473 1470 1468 1466 1465 1464 1463 1462 1462 1462 1463 1465 1467 1468 1466 1465 1468 1469 1476 1483 1487 1490 1494 1497 1498 1500 1505 1504 1506 1508 1509 1511 1512 1514 1514 1515 1515 1518 1519 1520 1521 1522 1522
1475 1471 1469 1466 1465 1463 1463 1462 1461 1460 1459 1459 1460 1462 1464 1464 1462 1463 1466 1468 1471 1478 1485 1489 1492 1496 1499 1500 1501 1503 1506 1506 1509 1511 1512 1513 1515 1516 1513 1515 1517 1518 1519 1520 1520
1471 1467 1464 1462 1461 1460 1459 1459 1458 1457 1457 1457 1458 1459 1459 1457 1459 1459 1463 1467 1471 1477 1482 1487 1492 1496 1496 1501 1502 1504 1505 1506 1508 1508 1509 1512 1512 1510 1513 1512 1513 1514 1515 1516 1516
1465 1461 1459 1457 1456 1455 1455 1455 1455 1454 1454 1455 1456 1458 1456 1451 1455 1457 1461 1466 1471 1477 1483 1487 1492 1497 1496 1500 1501 1502 1504 1507 1499 1505 1509 1510 1500 1506 1507 1509 1508 1510 1511 1512 1512
1459 1454 1451 1452 1451 1451 1452 1452 1451 1450 1451 1453 1455 1456 1451 1448 1452 1456 1459 1464 1468 1476 1482 1486 1491 1493 1496 1496 1501 1497 1495 1500 1501 1502 1503 1505 1499 1500 1505 1507 1505 1506 1507 1508 1507
1456 1449 1447 1447 1447 1448 1450 1450 1448 1448 1450 1453 1454 1458 1449 1448 1450 1454 1458 1462 1466 1475 1484 1487 1488 1487 1489 1490 1490 1489 1493 1496 1496 1500 1502 1501 1500 1502 1503 1503 1503 1502 1502 1502 1503
1456 1448 1443 1443 1445 1447 1449 1449 1452 1453 1450 1450 1450 1449 1445 1448 1449 1453 1457 1461 1468 1474 1476 1482 1482 1480 1479 1484 1486 1486 1494 1494 1494 1501 1502 1499 1499 1498 1499 1499 1499 1497 1496 1497 1498
1456 1449 1443 1442 1444 1445 1448 1449 1449 1451 1450 1449 1449 1449 1447 1447 1450 1454 1459 1455 1463 1468 1475 1483 1477 1476 1481 1487 1490 1488 1491 1494 1500 1503 1502 1498 1498 1494 1493 1494 1495 1494 1493 1494 1495
1458 1451 1445 1444 1443 1444 1448 1450 1450 1449 1448 1451 1452 1450 1448 1450 1451 1455 1460 1456 1463 1468 1469 1474 1476 1478 1483 1487 1489 1491 1490 1495 1494 1501 1504 1501 1488 1490 1495 1495 1496 1494 1493 1493 1494
1461 1455 1449 1447 1447 1449 1452 1451 1450 1449 1443 1454 1451 1448 1450 1450 1454 1457 1458 1461 1463 1469 1471 1473 1477 1478 1481 1486 1486 1493 1494 1495 1498 1498 1491 1500 1482 1486 1492 1495 1494 1495 1495 1494 1494
1464 1459 1455 1450 1450 1451 1454 1452 1452 1452 1433 1451 1450 1450 1453 1455 1457 1460 1459 1461 1468 1473 1475 1480 1477 1477 1480 1482 1487 1491 1496 1497 1501 1500 1499 1498 1494 1483 1490 1493 1494 1495 1496 1495 1493
1465 1462 1459 1457 1454 1454 1454 1454 1455 1452 1441 1454 1453 1454 1454 1457 1459 1461 1461 1464 1469 1472 1475 1483 1482 1485 1488 1492 1489 1497 1498 1502 1505 1503 1501 1497 1497 1478 1484 1485 1491 1495 1494 1493 1492
1464 1462 1459 1457 1456 1454 1453 1455 1448 1441 1462 1460 1457 1454 1457 1457 1460 1463 1462 1466 1467 1475 1477 1483 1490 1490 1490 1494 1499 1493 1492 1502 1504 1504 1489 1506 1503 1474 1485 1487 1488 1492 1492 1491 1490
1462 1460 1459 1456 1454 1452 1451 1453 1441 1458 1458 1461 1456 1457 1459 1462 1467 1468 1464 1470 1468 1468 1472 1478 1486 1491 1492 1493 1497 1496 1492 1483 1485 1489 1486 1508 1490 1475 1484 1487 1489 1491 1491 1489 1488
1461 1460 1458 1455 1453 1452 1454 1451 1460 1462 1460 1459 1456 1456 1461 1463 1467 1469 1471 1467 1468 1468 1469 1478 1489 1494 1495 1493 1495 1501 1498 1497 1499 1507 1494 1478 1482 1483 1483 1485 1489 1489 1488 1487 1486
1460 1459 1458 1456 1453 1452 1453 1459 1463 1463 1461 1460 1457 1460 1459 1463 1463 1465 1470 1472 1471 1472 1472 1478 1488 1492 1493 1493 1493 1489 1494 1497 1499 1495 1483 1473 1478 1467 1481 1483 1486 1486 1485 1484 1483
1460 1460 1459 1456 1455 1455 1464 1467 1465 1465 1464 1461 1462 1460 1461 1464 1466 1465 1470 1472 1471 1472 1472 1473 1476 1495 1493 1491 1488 1495 1492 1496 1491 1494 1480 1471 1466 1471 1473 1479 1482 1481 1481 1481 1480
1460 1460 1460 1457 1460 1463 1466 1469 1467 1464 1464 1463 1464 1465 1464 1468 1467 1466 1467 1469 1472 1472 1472 1477 1480 1489 1491 1495 1495 1492 1487 1486 1480 1496 1500 1494 1470 1476 1477 1479 1480 1479 1478 1477 1476
1463 1461 1460 1458 1460 1465 1467 1467 1467 1465 1464 1462 1463 1464 1466 1466 1466 1468 1470 1473 1473 1473 1472 1475 1482 1491 1496 1495 1494 1492 1491 1490 1491 1493 1498 1483 1468 1477 1478 1479 1478 1477 1476 1475 1474
1465 1463 1461 1460 1464 1463 1464 1465 1464 1465 1464 1464 1464 1465 1465 1466 1467 1469 1470 1473 1474 1474 1474 1474 1479 1479 1474 1479 1482 1491 1488 1489 1489 1491 1482 1479 1474 1473 1473 1474 1474 1474 1475 1473 1472
1467 1468 1468 1463 1464 1465 1467 1466 1464 1463 1464 1463 1463 1463 1463 1465 1467 1469 1471 1473 1475 1475 1475 1475 1482 1487 1482 1484 1486 1484 1484 1488 1491 1482 1482 1474 1478 1470 1470 1471 1472 1472 1471 1472 1470
1470 1471 1469 1467 1467 1466 1466 1464 1463 1463 1464 1461 1461 1462 1462 1462 1462 1466 1468 1469 1469 1476 1475 1478 1486 1488 1486 1486 1486 1486 1481 1480 1482 1481 1481 1478 1474 1467 1467 1470 1469 1468 1468 1467 1465
1471 1472 1472 1468 1466 1464 1462 1463 1463 1464 1464 1463 1461 1461 1462 1464 1465 1466 1467 1468 1468 1471 1474 1476 1483 1485 1478 1484 1483 1478 1468 1470 1472 1473 1473 1475 1465 1465 1465 1466 1466 1465 1464 1464 1463